Wind_Speed
8 7 7 6 6 6 5 6 8 9 12 13 12 12 12 14 17 19 20 22 22 21 19 16 14 13 13 12 11 11 11 11 10 11 12 12 13 13 13 13 13 13 13 13 14 14 14 14 13 12 12 12 12 13 13 14 14 15 15 15 15 14 15 15 15 15 15 15 14 14 13 14 14 15 15 15 15 16 16 16 16 16 14 12 12
8 8 7 6 6 6 5 5 8 10 12 14 14 13 13 15 18 20 21 22 22 20 18 16 14 13 12 12 12 11 11 11 10 10 11 12 13 12 12 13 13 13 13 13 13 13 13 13 13 12 13 12 12 13 14 14 14 14 14 15 15 14 14 14 14 14 14 14 14 13 14 13 13 14 14 15 15 15 15 14 14 14 13 11 10
9 9 8 8 8 6 6 6 8 10 12 14 15 15 15 16 18 20 21 22 21 19 18 16 14 13 12 11 11 12 11 11 11 11 11 12 13 13 12 12 12 13 13 13 13 14 13 13 13 13 13 12 12 13 14 14 14 14 14 14 14 13 13 13 13 13 12 12 12 12 13 14 13 13 13 14 15 14 13 12 13 13 12 10 9
10 10 9 9 9 7 6 6 7 9 12 13 14 15 16 17 18 20 21 21 20 18 17 15 14 13 12 10 10 11 11 11 11 11 11 11 12 12 12 12 12 12 12 13 13 13 13 13 13 12 12 11 12 13 13 13 13 13 13 12 12 12 12 12 12 12 11 10 10 10 11 13 14 13 13 13 13 14 12 11 11 11 11 11 9
11 11 9 9 11 9 7 6 5 8 12 14 14 16 17 18 19 20 21 21 20 17 16 15 14 13 12 11 10 10 11 10 11 11 11 11 11 12 12 12 12 12 12 13 13 13 13 13 13 12 12 11 11 12 12 12 12 12 11 11 11 11 11 11 10 10 9 9 9 10 10 12 14 14 13 13 12 13 12 10 9 10 11 11 9
9 10 10 10 11 11 9 6 5 6 11 15 15 16 18 19 20 20 21 21 19 18 16 16 16 15 15 14 13 13 13 12 12 11 11 11 11 11 11 11 11 11 11 12 13 12 12 12 13 12 12 11 12 12 11 11 11 11 11 10 10 10 10 9 9 8 8 8 9 9 10 12 14 14 13 13 12 13 12 9 8 8 10 12 10
9 9 10 11 11 11 9 7 6 6 9 14 16 16 17 18 19 20 21 20 19 18 17 16 16 17 17 16 15 14 14 14 13 12 11 11 11 11 11 10 10 10 10 11 11 11 11 12 12 12 11 11 12 12 11 11 11 11 10 9 9 8 8 8 8 8 8 8 9 9 10 12 14 13 12 12 13 13 11 9 7 7 10 13 11
9 9 9 10 11 12 11 9 8 7 7 11 15 16 17 18 20 20 20 20 19 18 18 18 18 17 16 15 14 14 14 15 14 14 12 11 11 10 10 10 10 9 9 10 10 10 10 10 11 11 11 11 11 11 11 11 11 11 10 9 8 8 8 8 8 8 8 9 11 10 9 10 12 13 11 10 12 12 11 9 7 7 10 13 12
11 10 10 11 12 14 13 12 11 9 7 8 13 17 17 18 20 20 20 20 19 18 18 19 18 17 16 16 15 14 14 14 14 14 13 12 11 11 11 10 10 9 9 9 9 9 9 9 9 9 10 10 10 10 10 10 11 11 10 9 9 8 9 9 9 9 10 10 10 9 8 9 10 12 11 10 10 11 11 10 9 9 11 12 12
11 11 12 12 13 16 16 14 12 10 8 8 10 15 17 18 19 20 20 19 19 18 18 18 18 17 16 16 16 15 15 15 15 15 14 13 12 12 11 11 10 9 9 9 9 8 8 7 8 8 8 9 9 9 9 10 10 10 9 9 9 9 9 9 9 10 10 9 9 9 8 8 9 10 11 11 10 10 11 12 11 10 10 11 12
12 12 13 13 14 16 16 14 13 11 9 7 7 10 15 18 18 20 21 20 19 19 18 17 17 17 17 17 17 16 16 17 17 17 16 15 14 13 12 11 11 10 10 9 9 8 7 7 6 6 7 7 7 7 7 8 8 8 8 8 9 9 9 8 8 9 10 9 8 7 8 8 9 9 9 11 11 10 11 12 12 11 10 11 12
12 13 14 13 13 14 13 11 11 10 8 8 7 8 12 17 19 20 20 21 20 19 18 17 17 17 17 17 17 17 17 17 18 19 18 17 15 14 13 12 12 11 11 10 9 9 8 7 6 6 6 6 6 6 6 7 6 7 7 7 8 8 8 8 8 8 9 8 7 7 8 8 8 7 9 11 12 11 11 11 12 12 12 12 12
12 12 14 14 13 13 12 11 10 10 9 9 9 9 11 15 19 19 20 21 21 20 19 17 17 17 17 18 18 17 17 17 18 18 18 17 16 15 14 14 13 12 11 11 10 10 9 8 7 6 6 6 6 6 6 6 6 6 7 7 7 7 7 7 7 8 7 8 7 6 7 8 8 7 8 10 12 11 11 11 10 11 13 13 13
13 13 14 15 14 13 13 12 12 12 11 11 11 10 11 15 18 20 21 22 22 21 21 19 18 18 18 18 19 18 18 17 17 18 18 17 17 16 16 15 13 13 12 11 11 11 10 9 8 7 6 6 5 5 5 6 6 6 6 6 7 7 7 7 7 7 7 7 8 7 7 7 8 9 9 9 11 11 11 11 10 10 11 12 13
14 15 15 15 15 14 14 13 13 14 14 13 11 10 10 13 18 21 22 22 22 22 21 21 20 18 18 18 19 19 19 18 18 18 18 18 18 17 16 16 14 14 13 12 11 10 10 9 8 7 7 6 5 5 5 6 6 6 6 7 7 7 7 8 8 8 7 7 8 8 7 6 7 9 10 10 10 10 10 11 10 10 11 11 11
13 15 15 15 14 14 13 13 14 15 15 13 11 10 9 11 17 21 22 22 23 23 22 22 22 20 19 19 19 20 20 19 18 17 18 18 18 18 17 16 15 14 14 13 12 10 9 8 8 7 7 6 6 5 5 6 7 7 8 8 9 9 9 10 9 9 8 7 8 8 8 6 6 8 8 9 10 10 10 10 10 10 11 11 10
10 12 14 14 13 12 12 12 14 14 14 13 12 11 11 11 14 20 23 23 23 24 23 23 23 22 21 20 20 20 20 19 18 18 18 18 18 18 17 16 15 14 14 13 12 10 9 8 7 6 5 6 5 5 5 6 8 9 10 11 11 11 11 10 9 8 7 7 7 7 7 6 6 7 7 8 9 10 10 10 10 10 10 10 10
12 13 15 15 13 12 12 13 14 14 14 15 14 13 12 10 12 17 21 22 22 24 25 24 24 23 22 21 21 20 20 20 20 19 19 18 18 17 16 15 15 15 14 13 12 11 9 8 6 5 4 4 4 5 6 8 10 11 12 12 12 11 10 9 8 7 7 6 6 6 6 6 6 6 6 7 8 9 10 10 10 10 9 9 9
17 15 15 15 13 11 11 13 15 16 15 16 16 14 12 10 10 13 18 22 23 24 26 26 25 24 24 22 22 22 21 21 21 20 18 17 17 16 16 15 15 15 14 13 12 11 10 9 7 5 3 3 3 5 8 10 12 12 12 12 12 11 9 8 7 6 6 6 5 5 5 6 6 6 6 7 8 9 10 10 10 10 9 8 8
21 18 17 18 14 12 12 12 15 17 17 17 16 14 12 10 10 12 16 21 22 23 24 25 25 24 24 24 22 22 22 22 21 20 19 17 17 16 15 15 15 15 14 13 12 11 11 9 7 5 3 2 2 4 9 13 13 13 12 11 11 10 8 7 6 5 4 4 4 4 4 5 5 5 5 6 8 10 10 10 10 10 9 8 8
23 21 21 21 18 15 15 14 14 17 18 18 18 15 14 12 11 12 14 17 19 20 20 22 23 24 24 24 23 22 22 22 21 21 20 19 17 16 16 15 15 15 14 13 13 12 11 10 8 5 3 3 3 4 9 14 14 13 12 11 9 9 8 7 6 5 4 3 3 3 3 3 3 3 4 6 8 10 10 10 11 10 9 8 8
24 23 24 25 22 19 19 17 16 17 17 18 18 17 15 14 12 12 13 15 17 19 19 20 22 23 24 25 25 24 23 23 22 21 21 20 18 17 17 16 15 15 15 14 13 12 11 10 8 6 4 3 4 4 8 13 14 13 12 11 9 8 8 7 6 5 4 3 2 2 2 2 2 2 3 4 6 9 10 11 11 11 10 9 8
24 23 25 27 26 24 22 20 19 19 17 18 19 18 16 15 14 14 14 15 17 18 20 21 22 23 24 25 26 26 25 24 22 21 21 20 20 19 18 17 17 17 16 15 14 13 12 11 9 8 6 5 6 6 8 11 13 13 12 11 10 9 8 6 6 5 4 3 2 2 2 2 2 2 2 4 5 8 10 11 11 11 10 10 9
24 23 25 28 29 29 26 22 22 22 20 19 20 20 19 18 17 16 16 17 18 19 20 22 23 23 25 26 27 27 26 25 23 22 21 21 21 20 19 18 18 18 17 16 15 14 13 12 11 10 9 7 8 8 9 11 13 13 13 12 10 9 7 6 5 4 3 3 2 2 2 3 3 3 3 3 5 7 9 10 11 11 11 11 10
27 26 26 30 32 31 28 24 23 25 24 22 21 22 22 20 18 17 18 18 18 18 19 20 22 24 26 26 27 28 27 26 25 24 23 23 22 21 20 19 18 18 17 17 16 15 15 14 13 12 11 9 10 10 11 11 12 13 13 12 11 9 7 6 4 3 3 2 2 2 3 4 4 4 4 4 4 6 8 10 11 11 11 11 10
33 34 34 35 36 34 30 27 25 27 27 25 24 23 23 23 21 19 19 19 18 18 18 19 21 24 26 26 27 27 27 27 27 26 26 25 24 23 21 20 19 18 17 17 16 16 15 15 15 13 12 10 10 11 12 12 13 13 13 13 12 10 8 6 5 4 3 3 3 3 4 5 5 5 6 6 5 5 7 9 11 11 11 11 10
38 40 40 39 38 37 35 33 31 30 30 28 27 26 26 26 23 21 21 21 20 20 19 19 20 22 24 26 26 26 26 28 29 29 29 27 26 25 23 22 21 20 18 17 16 16 15 16 15 13 12 11 11 12 13 13 13 13 14 13 12 11 9 7 6 5 4 4 3 4 5 6 6 7 7 8 8 7 6 7 9 11 12 12 11
37 40 42 40 39 38 37 36 35 35 34 33 32 30 29 29 26 25 25 24 23 22 20 20 20 20 22 24 26 27 27 29 30 31 31 30 28 27 25 24 23 21 20 18 17 17 16 16 15 14 13 12 11 12 13 13 14 14 14 13 12 11 9 8 7 6 5 5 5 5 5 6 7 7 8 9 10 9 8 7 8 10 12 13 13
33 36 39 40 41 40 39 39 39 38 37 36 35 35 34 34 32 30 29 29 27 25 23 21 20 19 21 24 27 29 29 30 31 32 31 31 30 29 28 27 25 23 21 20 19 19 18 17 16 14 13 12 11 12 12 14 15 15 15 15 13 12 10 9 8 7 6 6 6 7 7 7 8 8 9 10 12 12 11 10 9 9 11 13 15
35 35 37 39 41 41 41 42 42 41 39 37 36 37 38 39 38 36 34 33 31 28 27 25 23 23 24 26 29 30 31 31 31 31 30 30 30 30 29 28 26 25 24 22 21 20 19 18 17 15 14 13 12 12 13 14 15 16 16 16 15 13 12 11 9 8 8 7 7 8 9 9 9 10 10 11 12 13 13 13 11 10 11 13 14
37 36 37 39 42 44 44 43 44 44 42 41 38 38 40 41 41 39 37 35 32 29 27 25 23 22 22 25 28 31 32 32 31 30 30 30 31 31 31 30 29 27 26 24 23 21 20 19 19 17 16 14 13 14 14 14 15 16 16 16 16 16 14 13 11 10 9 9 9 9 10 11 11 11 11 11 12 13 14 15 14 13 13 13 14
39 36 37 39 42 46 47 46 46 45 44 43 41 39 39 40 41 42 41 38 34 30 27 24 21 18 17 19 23 26 29 32 32 31 31 31 31 31 31 31 30 29 28 27 25 23 22 22 21 20 18 16 16 16 16 15 16 16 16 16 17 17 16 15 14 12 11 11 10 11 11 12 12 12 12 12 12 12 14 15 16 15 15 15 15
40 38 40 43 44 46 48 48 48 47 46 45 43 42 40 40 41 41 42 41 38 34 31 27 23 19 17 18 19 21 24 27 30 31 31 31 31 30 30 30 31 31 30 29 27 26 24 23 22 21 20 19 18 18 18 17 17 17 17 17 18 18 18 18 17 16 14 13 12 13 13 14 14 13 13 13 12 12 13 15 17 17 16 17 17
40 39 43 47 47 45 45 45 45 46 45 44 43 43 42 41 40 39 39 40 41 38 34 31 27 24 23 25 24 21 22 25 28 30 31 31 29 28 29 30 31 32 31 30 29 27 26 25 24 23 22 21 21 20 20 20 19 18 18 18 19 19 19 20 20 19 17 16 15 15 15 15 15 14 14 14 13 13 13 14 17 18 18 19 19
41 40 42 46 47 46 44 42 41 41 41 41 41 41 41 40 38 38 37 36 38 39 37 34 31 30 30 32 32 27 24 25 27 28 29 30 29 29 29 29 30 31 30 30 30 29 28 27 26 25 24 23 22 22 22 21 21 21 20 20 20 20 20 21 21 21 20 19 18 17 17 17 17 16 16 16 15 15 14 14 16 18 20 21 21
43 42 42 43 46 47 46 44 42 41 41 41 41 41 40 39 38 40 40 35 32 35 36 35 35 34 33 35 34 30 27 26 26 26 26 28 29 29 29 29 29 29 30 30 30 29 29 28 28 27 26 25 24 24 24 23 23 23 23 22 21 21 21 21 22 23 23 23 22 20 19 19 18 17 17 17 17 17 16 16 16 18 20 22 23
49 47 44 43 43 43 43 44 45 44 43 43 43 44 42 40 38 40 41 38 33 34 35 35 36 36 35 35 33 28 26 27 26 25 25 27 29 30 30 30 29 29 29 29 29 28 28 28 28 28 27 26 26 26 26 26 26 26 26 24 22 22 23 23 23 24 25 25 25 23 22 21 21 20 19 19 19 18 18 18 18 18 20 22 24
52 50 48 45 43 42 40 41 43 45 45 45 45 45 43 42 42 41 41 40 37 37 38 36 37 38 38 36 32 27 26 27 27 26 26 27 28 30 31 31 30 29 29 29 29 29 29 29 28 28 28 28 28 28 28 29 29 29 29 27 25 24 24 24 25 25 26 26 26 26 25 23 23 23 23 21 20 19 19 19 19 20 20 22 25
52 52 52 49 47 46 44 42 41 42 44 45 46 44 41 41 43 42 41 41 40 41 41 39 39 40 40 37 33 29 27 27 27 27 27 27 29 30 31 31 31 30 30 30 30 29 29 28 28 27 28 29 29 30 30 30 31 32 31 30 29 26 25 25 26 27 27 27 27 27 27 26 25 26 25 23 21 20 20 21 21 20 21 23 26
55 54 55 53 50 50 49 47 45 43 42 44 46 43 39 38 40 41 41 41 41 42 42 40 40 42 43 40 35 30 28 27 27 28 28 28 29 30 31 31 31 31 31 30 29 29 28 29 28 28 27 28 28 29 30 30 32 33 32 32 31 29 26 26 26 28 28 29 29 29 29 28 28 28 28 26 24 21 21 22 22 22 23 25 26
56 55 55 54 52 51 51 49 47 45 43 44 46 43 40 39 39 38 39 41 42 42 41 39 39 42 45 45 38 30 28 28 29 30 30 30 30 30 31 31 32 31 31 30 29 28 28 28 28 28 27 27 27 27 28 29 30 31 32 32 31 29 28 27 28 28 29 30 30 30 31 31 31 31 30 29 26 24 23 23 24 24 26 27 27
56 56 56 55 52 52 53 51 49 46 45 46 47 45 43 42 39 37 37 40 42 42 39 37 37 38 42 44 39 32 30 31 31 32 32 31 30 30 31 31 32 32 31 30 29 28 27 27 27 27 27 26 26 27 27 28 29 29 29 30 30 29 29 29 29 28 29 29 30 31 33 33 33 33 32 31 28 26 24 24 26 27 28 28 28
61 58 57 57 56 54 54 54 52 49 47 47 48 47 46 44 41 39 39 40 40 40 39 39 37 34 33 35 35 33 32 33 33 33 33 32 31 31 31 31 31 31 31 30 28 27 27 26 26 26 26 26 26 27 27 27 28 27 27 28 28 28 29 30 29 29 29 29 31 32 34 35 35 35 34 32 30 28 26 26 28 30 29 28 28
68 63 60 60 60 58 57 57 55 53 51 50 49 48 47 45 43 42 41 40 40 39 38 38 36 32 29 29 31 31 33 34 35 34 34 34 34 33 32 32 32 31 30 29 27 26 26 25 25 25 25 25 26 27 27 27 28 27 27 27 27 27 28 30 30 29 30 30 31 33 35 36 36 36 35 34 32 30 28 29 30 30 28 27 27
73 69 65 62 63 63 62 61 59 57 55 53 51 49 48 47 46 45 43 42 42 41 39 37 34 32 31 32 33 34 35 36 37 37 36 36 35 34 34 34 33 32 31 29 27 26 25 25 24 24 24 24 25 27 27 27 28 28 28 28 28 28 29 30 30 30 31 31 31 33 36 36 36 37 37 36 34 32 31 31 31 30 28 27 27
77 74 69 65 64 66 67 65 63 62 59 57 54 52 50 48 47 46 44 44 45 44 42 40 38 37 37 37 38 38 37 38 38 38 37 37 37 36 36 36 35 34 32 30 28 27 26 25 24 23 22 23 25 26 27 27 28 29 29 29 29 29 30 31 31 32 32 32 32 33 35 37 37 38 38 37 35 34 33 32 32 30 28 28 27
82 79 75 68 64 68 70 68 67 66 63 59 57 54 52 51 49 47 46 46 46 46 45 44 42 41 41 41 40 40 39 39 38 38 37 37 38 38 38 38 37 35 32 31 29 28 26 25 23 22 22 24 25 26 26 26 28 29 30 30 29 29 31 32 32 32 33 33 33 34 36 38 39 39 38 37 36 35 34 34 32 30 29 28 28
82 81 80 73 67 69 73 71 69 69 66 62 59 56 52 51 50 48 48 47 46 46 46 45 45 45 44 43 41 40 40 40 39 38 37 37 38 39 40 39 37 34 32 31 29 28 27 25 24 23 24 25 26 27 25 25 28 30 31 31 31 31 32 32 33 34 36 36 36 37 38 39 39 38 38 37 37 36 35 34 32 30 28 28 28
82 81 80 76 68 68 74 75 73 71 69 65 62 58 53 51 50 50 49 49 48 47 46 46 47 47 47 45 43 42 42 42 41 40 38 37 38 40 41 40 38 36 34 31 29 27 27 27 26 26 27 28 28 27 26 27 30 32 33 33 33 33 34 35 35 37 38 38 38 38 38 38 38 38 38 38 37 36 36 34 32 30 29 28 27
85 81 79 76 69 66 71 76 74 72 69 66 62 60 56 53 52 51 51 51 50 50 48 48 48 49 49 48 46 45 44 44 43 41 40 40 41 41 41 40 39 37 35 32 30 28 28 29 29 30 30 30 28 27 28 31 33 34 35 36 36 37 38 38 38 39 38 37 36 36 36 37 38 38 38 38 37 37 36 35 33 31 29 28 26
89 84 81 79 73 66 67 72 73 71 69 66 63 61 59 57 54 53 53 53 53 52 51 50 50 50 49 49 48 48 48 47 47 46 46 45 42 39 38 38 38 38 36 34 32 31 31 32 32 32 32 32 30 29 30 32 34 35 36 38 39 40 41 40 39 38 37 35 34 34 35 37 39 39 39 38 38 38 37 35 33 31 29 27 24
Wind_Direction
199 196 192 185 216 237 208 200 212 195 175 167 165 165 160 158 161 162 160 159 159 159 157 156 157 155 152 149 147 147 141 134 132 137 140 135 130 129 128 124 122 120 116 112 109 106 104 103 103 103 103 100 98 100 104 109 116 121 123 124 120 115 111 113 114 108 102 97 92 89 88 91 96 98 99 98 96 94 93 93 92 90 89 85 80
211 200 191 179 199 229 225 206 210 203 187 175 171 168 163 161 164 163 162 162 162 161 158 157 159 158 156 154 151 151 146 137 135 140 140 134 130 129 126 121 118 116 113 110 108 103 100 100 101 101 100 98 97 98 102 107 113 118 121 120 117 113 113 115 114 107 101 97 93 90 90 92 96 99 101 100 99 97 96 96 93 90 88 83 79
217 207 195 179 182 207 224 219 214 208 197 186 177 169 164 165 166 166 165 165 164 163 159 158 159 159 159 159 155 154 151 143 139 140 139 133 129 128 124 118 116 113 109 106 103 99 98 99 100 100 98 97 97 98 101 106 111 115 117 115 114 114 116 117 113 105 100 96 91 88 91 97 101 101 101 102 104 104 101 97 94 92 90 85 82
217 211 203 182 173 187 215 229 226 211 200 195 185 173 168 169 170 169 167 167 166 164 160 157 158 159 160 160 158 156 153 148 142 140 139 133 128 126 124 121 119 114 110 106 103 101 101 102 101 100 98 97 98 99 101 106 109 110 112 112 114 115 115 115 111 107 104 97 88 84 89 101 106 106 105 105 104 102 99 95 93 95 97 93 87
220 207 206 192 176 179 201 221 231 215 201 198 194 182 175 172 172 171 169 169 168 165 161 156 155 158 159 158 160 159 157 155 150 145 142 138 132 129 127 126 123 117 113 111 108 106 103 104 105 103 103 103 102 100 100 104 107 108 110 112 113 112 111 112 110 107 102 93 85 81 87 99 106 108 109 106 100 96 92 85 84 91 97 95 91
225 208 206 203 190 181 186 204 224 220 205 202 200 191 183 178 174 172 172 170 169 166 163 161 159 162 165 164 166 167 165 163 158 153 149 145 140 136 132 131 127 120 116 115 114 113 110 108 107 107 107 106 102 98 98 103 107 107 108 110 110 108 108 109 106 98 89 83 80 82 91 98 101 104 104 102 97 93 90 83 79 84 93 95 95
222 212 209 211 204 189 180 191 212 217 210 208 206 199 190 184 178 176 175 173 170 168 167 167 166 169 172 171 170 171 169 167 163 161 159 154 150 144 139 136 134 128 122 120 119 118 114 110 107 107 105 102 97 93 94 100 104 105 105 105 105 106 106 103 97 92 88 84 81 81 91 97 98 98 97 97 94 91 91 88 86 89 94 95 96
217 215 215 213 207 197 187 190 206 208 204 210 211 207 199 191 186 181 177 175 173 172 173 172 172 175 177 173 171 172 172 171 170 169 167 164 160 152 148 147 144 140 135 129 126 123 118 113 111 108 104 99 96 94 95 99 101 101 101 100 101 102 101 98 94 92 90 87 85 85 86 90 95 97 94 92 94 96 96 94 96 100 95 94 97
214 219 222 217 205 198 193 191 202 201 189 202 211 213 207 197 193 188 182 179 176 176 178 178 177 178 177 174 171 171 174 176 175 175 174 171 169 162 159 157 152 151 150 143 136 132 127 123 121 115 107 102 100 100 100 101 100 99 99 100 99 99 98 97 94 93 88 86 88 91 88 86 91 97 97 93 94 101 104 101 101 99 95 99 104
215 220 220 220 209 202 198 192 196 198 186 189 204 214 215 205 198 195 190 184 180 180 182 181 180 179 177 174 172 171 174 178 179 180 181 178 177 173 168 164 161 162 162 157 149 143 139 135 130 123 113 107 106 105 102 100 99 100 102 102 102 102 98 95 95 94 90 88 90 92 92 90 88 92 98 98 97 103 107 104 98 92 94 103 106
218 218 213 216 213 208 204 193 191 193 184 179 189 211 219 213 204 200 197 193 186 183 183 183 182 180 178 175 175 176 178 181 181 182 184 184 183 180 176 172 169 170 171 168 162 156 153 148 141 133 124 116 113 109 103 99 99 102 103 103 104 103 100 99 99 98 97 95 94 94 94 91 88 91 98 100 101 105 105 102 99 98 98 102 104
222 219 213 213 212 211 210 198 191 191 180 174 182 199 213 216 210 204 202 201 195 188 184 185 184 183 180 177 177 179 182 185 185 185 187 187 186 185 182 180 177 176 174 173 171 168 166 163 159 151 137 127 121 115 108 104 104 105 103 103 105 104 104 105 102 98 100 102 102 103 100 92 87 92 101 102 103 103 100 99 105 108 107 104 103
228 227 222 215 210 209 210 202 194 191 183 179 185 194 203 210 210 206 203 205 204 198 189 186 188 187 183 180 181 181 184 190 189 188 188 188 189 189 188 186 183 180 178 176 176 174 174 173 171 166 151 139 132 124 120 118 117 111 108 108 108 107 108 108 106 105 107 111 111 107 101 99 98 96 97 100 102 101 97 96 101 108 110 111 108
233 233 226 218 214 213 210 203 193 190 191 187 188 198 202 203 205 204 203 204 206 205 198 191 191 192 188 184 183 183 186 192 192 190 188 187 191 193 191 190 188 185 182 181 180 178 176 174 171 166 153 141 133 126 125 124 122 116 114 114 112 112 114 113 114 114 113 114 114 108 103 108 115 111 104 101 100 100 100 98 99 106 112 114 113
230 230 225 218 218 217 211 204 196 192 194 192 190 198 204 202 201 202 201 202 204 207 206 201 196 196 194 190 187 187 188 192 195 193 189 188 191 194 194 192 191 188 186 186 185 183 179 173 168 161 148 137 128 120 121 123 125 126 126 123 119 118 118 116 115 112 109 110 111 112 112 117 125 120 114 110 106 104 106 106 109 114 115 114 112
223 222 220 217 219 220 215 206 199 197 197 196 193 197 204 203 200 201 200 199 201 203 206 206 203 200 197 195 193 191 191 194 196 195 194 192 192 194 196 194 193 191 189 190 189 188 185 178 169 160 145 135 125 119 123 129 132 136 134 129 125 123 120 118 116 113 110 111 111 112 115 122 127 122 120 119 116 115 115 115 119 122 122 120 117
214 214 214 215 217 220 220 211 204 201 201 201 198 200 205 203 200 202 201 199 199 201 203 205 204 203 200 198 198 196 194 195 196 197 199 199 196 196 198 197 196 196 194 192 193 192 192 187 177 166 148 133 124 122 129 136 138 139 137 134 131 128 125 121 119 115 109 104 104 106 113 125 128 125 129 130 127 126 125 125 126 127 129 129 126
214 213 209 209 211 212 215 212 207 203 204 207 206 206 207 203 198 201 203 202 200 201 203 205 203 203 203 200 199 200 198 196 197 200 203 203 203 201 200 200 201 202 201 197 196 198 199 198 189 178 160 136 124 125 135 143 143 142 141 138 136 134 131 127 122 116 109 102 98 99 108 119 123 127 140 148 146 143 140 137 135 136 137 136 134
222 222 211 204 203 207 210 212 211 206 206 210 213 213 209 201 194 197 202 204 203 202 203 205 203 202 204 203 201 201 201 199 198 201 204 207 208 207 206 207 207 208 209 206 205 205 206 207 201 190 178 152 133 132 142 148 148 147 146 144 142 139 135 129 123 115 109 104 98 94 96 102 111 126 147 161 165 161 154 149 146 146 146 144 143
223 223 214 205 206 216 213 207 210 208 207 211 215 215 211 203 192 190 200 205 206 206 205 206 206 204 204 205 204 203 204 202 199 198 201 205 209 211 211 213 214 215 216 215 215 216 217 217 212 202 192 182 159 145 150 154 155 154 153 150 146 142 136 130 123 114 106 99 92 88 84 88 102 125 149 167 176 174 167 161 157 155 156 156 155
219 219 215 210 214 223 214 207 211 210 208 209 210 211 210 206 195 188 194 202 206 208 207 208 212 210 207 206 207 207 207 206 203 198 197 201 206 210 211 214 217 220 223 223 224 226 227 228 226 219 212 208 203 169 159 161 161 160 158 155 151 146 141 137 131 123 111 100 95 95 91 87 99 124 150 168 180 183 179 172 167 165 167 170 170
219 216 213 215 221 221 214 216 220 217 213 209 207 208 209 207 199 188 187 192 198 202 204 205 211 214 213 210 209 210 209 208 206 201 199 199 201 206 209 210 214 220 225 228 230 231 234 239 240 239 236 228 227 202 174 169 167 165 162 160 158 154 150 145 141 137 130 123 119 118 122 119 116 135 158 170 183 189 187 183 179 177 175 178 183
220 215 212 218 223 220 219 225 222 216 214 210 205 206 208 208 203 190 185 189 191 195 198 200 203 209 214 215 214 213 211 209 208 206 204 201 200 203 206 206 209 215 221 226 231 233 237 244 250 252 249 235 230 222 196 181 174 170 167 165 165 162 159 154 150 146 144 145 150 164 178 180 178 180 177 177 187 194 194 192 189 186 184 185 190
215 215 212 215 218 219 223 228 221 213 210 207 205 205 207 209 206 197 192 193 193 194 197 198 199 203 210 214 216 216 214 211 209 209 208 206 204 203 205 206 209 212 216 221 226 231 235 240 247 251 248 235 227 225 213 195 183 175 172 170 169 168 165 164 161 157 157 163 173 190 204 211 213 219 215 198 192 195 199 201 199 195 192 192 195
206 210 211 213 216 220 221 222 219 212 205 202 202 205 209 209 208 206 202 200 199 198 200 201 202 203 207 211 214 216 215 214 212 210 210 210 209 205 204 207 209 211 215 219 221 224 230 235 238 242 242 235 228 226 220 208 194 184 178 175 173 174 173 174 177 177 179 188 204 223 232 229 224 228 235 230 212 201 201 205 206 204 201 201 202
203 207 209 210 213 214 210 208 210 208 205 203 201 204 208 209 210 211 209 205 202 201 202 204 206 206 207 209 212 214 214 214 214 212 212 212 211 208 205 205 208 210 215 219 220 221 225 231 234 235 237 235 231 229 225 217 206 195 188 182 178 178 179 182 189 199 210 214 222 241 254 252 241 234 238 243 239 224 211 208 210 210 210 211 212
207 209 210 209 210 209 204 201 199 199 200 202 202 202 204 207 209 212 213 210 204 202 202 206 209 210 210 209 210 211 211 212 213 213 213 212 211 210 207 205 206 208 211 216 221 222 224 228 232 232 232 232 231 230 228 222 214 206 200 192 185 183 184 188 196 210 228 242 246 252 260 262 256 247 243 246 249 246 234 220 215 215 215 216 219
213 214 213 210 209 207 204 201 199 196 197 198 199 199 200 204 207 210 214 214 208 204 204 207 210 212 212 211 210 210 209 210 211 212 213 212 211 210 209 207 206 206 208 212 217 222 224 227 230 230 229 229 229 230 230 226 220 214 210 205 197 191 190 195 204 214 230 247 262 267 268 267 262 255 246 245 249 251 250 241 228 221 219 219 221
221 221 218 214 211 207 205 204 203 202 203 202 201 199 197 200 204 206 210 212 209 206 204 205 208 210 213 213 210 209 208 209 210 212 213 212 211 210 210 210 208 207 208 210 214 220 225 227 229 229 228 227 226 228 229 227 224 220 217 214 208 201 198 202 209 216 226 242 258 270 274 272 266 260 251 245 244 247 250 251 243 233 227 224 223
223 225 225 221 215 211 208 207 207 207 208 209 207 204 201 200 202 204 207 209 209 207 204 203 204 207 210 211 210 209 209 209 211 212 213 213 213 212 211 211 210 209 210 212 213 217 222 227 230 230 228 226 224 226 227 227 226 225 223 220 215 210 207 207 211 219 227 237 250 263 271 273 270 265 257 250 245 244 246 249 249 244 239 234 229
222 227 230 228 221 213 209 209 209 210 211 211 211 210 208 205 202 203 205 208 210 210 209 207 208 214 219 218 213 209 207 208 209 210 212 214 214 214 212 212 211 210 211 213 214 215 219 224 229 230 229 226 226 227 226 226 227 228 227 225 220 217 213 212 215 221 228 235 244 254 263 268 269 268 264 259 253 248 245 246 247 247 247 245 239
217 222 226 228 223 215 209 208 210 211 211 212 212 214 216 214 208 204 203 205 207 209 211 212 213 222 234 233 226 220 213 209 207 208 210 213 215 215 214 214 213 212 212 214 214 215 217 221 226 230 230 228 228 230 230 228 228 229 230 229 225 222 219 218 222 227 230 234 240 247 255 262 265 267 267 266 262 256 250 247 246 245 247 250 248
212 216 220 223 222 217 211 209 210 211 210 211 211 212 215 218 216 208 202 202 203 204 206 208 209 211 213 215 225 236 233 222 214 210 210 212 214 215 216 216 215 214 214 214 215 216 217 219 223 227 230 230 230 232 233 233 231 230 230 231 229 226 223 222 226 231 235 239 242 245 249 255 260 263 265 266 265 260 255 250 248 246 244 248 251
212 215 217 218 218 216 214 212 212 214 214 213 214 214 212 214 218 216 207 201 200 201 201 203 205 204 198 194 201 220 237 237 228 219 215 213 213 213 215 217 217 217 216 215 216 218 219 220 221 223 226 229 231 233 234 236 236 234 233 232 231 229 226 224 226 229 234 240 245 245 245 249 255 258 260 262 262 261 258 254 252 249 245 245 249
211 214 215 216 215 213 215 216 216 219 220 218 218 220 216 214 217 222 218 210 203 200 198 200 203 203 198 193 192 198 216 231 231 225 220 216 213 212 214 217 219 219 218 216 216 218 219 220 221 221 222 225 229 233 235 237 239 239 237 235 234 232 229 226 225 228 232 238 244 246 245 246 250 254 257 259 259 258 257 256 253 251 248 246 246
210 210 212 215 214 212 214 217 217 218 222 221 220 220 219 215 216 221 223 222 216 208 203 201 203 203 200 197 195 194 201 214 221 222 220 217 214 213 212 215 217 218 218 217 217 218 220 222 223 223 222 223 225 230 233 236 240 241 240 237 235 235 234 231 228 228 232 238 243 246 246 245 247 251 253 255 257 258 257 258 257 254 250 248 246
211 209 210 213 213 212 213 215 216 217 219 221 221 220 219 216 215 217 220 222 223 219 215 209 205 205 203 202 202 200 200 206 212 213 214 213 213 212 212 213 215 216 217 216 215 215 217 220 223 225 224 223 224 227 231 234 238 241 242 240 236 234 234 233 231 229 231 236 242 246 247 246 246 248 249 250 252 255 256 257 258 257 254 251 247
208 209 212 214 215 216 216 216 218 218 218 219 221 221 219 215 213 215 217 218 219 222 222 217 212 210 208 205 205 203 203 207 210 208 208 209 210 211 211 212 213 214 215 214 213 212 213 216 221 224 225 224 224 225 228 231 235 239 242 242 239 235 233 232 232 231 232 235 240 244 247 247 246 247 248 248 249 250 253 255 255 256 257 254 250
208 210 214 218 220 222 222 219 218 219 219 220 221 222 221 216 213 214 216 217 220 224 224 219 216 216 211 207 206 204 203 207 210 208 206 206 208 211 212 212 212 213 215 216 215 213 212 213 216 220 224 226 227 227 228 230 232 236 240 241 241 237 234 232 232 232 233 236 239 241 244 246 246 245 247 248 247 247 250 253 254 254 256 255 253
211 213 216 221 224 225 224 222 220 220 220 220 221 224 224 218 215 216 217 218 223 226 225 222 221 219 214 207 204 203 203 206 211 211 208 206 207 211 214 214 213 213 216 218 217 215 213 212 213 215 220 225 228 230 231 231 233 235 238 241 242 240 236 234 233 232 232 234 237 240 242 243 243 244 245 246 246 243 243 247 251 253 254 255 255
210 213 215 218 222 225 227 226 225 224 223 222 222 224 223 219 217 219 219 218 220 223 223 223 223 221 214 207 205 208 210 209 211 212 211 209 208 211 214 216 215 214 216 218 219 219 217 215 215 215 217 221 226 230 233 234 235 236 238 240 242 241 239 236 234 232 232 233 234 237 239 240 241 242 243 244 245 243 240 241 246 249 252 255 258
213 214 215 218 221 226 229 229 229 229 227 224 222 222 221 218 217 219 218 216 216 219 219 217 217 216 213 210 213 220 221 216 214 214 214 213 211 211 214 216 217 216 216 217 219 221 221 220 220 219 219 221 224 228 232 236 238 239 239 240 241 241 240 238 235 234 233 233 233 233 235 238 239 240 241 242 243 242 240 239 242 246 250 254 258
218 217 217 219 221 225 229 230 230 231 229 226 224 221 219 218 216 215 214 214 217 219 217 213 213 214 213 213 217 223 223 221 219 218 218 216 214 213 214 216 217 217 217 217 219 222 224 225 225 225 225 225 225 226 229 234 239 242 243 243 242 240 240 238 236 235 235 234 233 233 234 236 238 239 241 241 242 241 240 239 241 245 249 254 258
221 220 219 220 221 224 228 231 232 232 229 226 226 223 220 220 219 215 213 214 216 217 216 215 217 219 218 220 222 223 222 221 221 221 221 220 218 217 216 217 217 218 218 218 218 221 224 226 228 228 229 229 229 229 229 231 236 240 243 245 244 242 240 238 236 235 236 235 234 233 234 235 237 239 240 241 241 241 240 240 242 246 250 256 260
221 221 220 220 220 223 228 230 232 232 228 226 227 226 223 223 222 218 215 214 213 214 215 216 217 218 218 221 223 224 222 221 220 221 222 222 222 222 221 220 220 219 218 218 219 221 224 226 228 230 231 232 233 234 233 233 234 236 238 241 243 242 241 240 237 236 237 236 235 234 235 236 237 239 240 240 240 240 240 242 244 247 251 256 260
221 220 220 219 219 221 225 229 231 231 229 226 227 227 226 225 224 220 218 215 213 213 215 214 213 212 213 216 219 221 222 222 222 222 223 223 224 225 225 224 224 222 221 220 222 224 225 227 229 231 234 236 237 238 238 237 237 237 237 237 240 242 242 241 239 238 239 238 237 237 237 238 238 239 241 241 241 241 241 243 245 248 251 255 259
222 220 220 220 219 217 220 226 229 230 229 227 226 227 226 226 226 223 220 218 215 214 214 212 210 208 209 212 215 218 220 221 222 224 225 226 226 226 227 227 227 226 225 225 227 229 229 229 230 232 234 238 241 241 241 240 240 240 238 236 236 239 242 242 240 240 241 240 239 237 236 237 238 240 243 244 243 243 244 245 246 248 252 256 257
222 221 220 223 222 217 217 222 227 228 227 227 226 225 225 226 227 226 222 219 217 215 212 211 209 207 208 211 214 216 218 220 223 225 227 228 228 228 228 229 228 228 229 230 233 234 234 233 232 232 233 237 241 243 243 243 243 242 240 237 235 236 239 241 240 240 240 239 238 237 237 238 240 242 244 246 246 246 247 248 249 250 253 256 257
222 221 221 223 224 220 217 220 224 225 225 226 226 226 226 227 229 229 225 221 218 215 212 211 210 208 209 212 215 217 219 221 224 226 227 228 227 227 227 227 226 227 228 231 234 237 238 238 236 233 233 235 238 241 243 243 243 242 240 237 235 235 237 238 239 239 239 238 238 238 239 240 242 244 245 246 248 249 250 251 251 252 253 255 256
222 222 222 224 225 222 217 217 220 223 223 225 226 228 230 231 231 229 227 225 221 217 216 214 213 212 212 214 215 217 220 222 224 225 226 226 225 224 224 225 226 227 229 231 233 235 237 238 236 234 234 236 237 239 241 242 243 243 241 238 237 236 237 238 238 239 240 240 239 240 240 242 243 245 246 246 248 249 251 252 253 254 255 255 255
224 224 224 226 227 225 218 215 216 220 222 224 227 230 232 234 231 228 227 226 223 220 218 217 215 215 215 216 217 218 220 222 223 224 225 225 224 225 226 226 227 228 229 230 232 233 235 236 235 234 236 237 237 238 241 243 245 246 244 242 240 239 240 241 241 241 241 241 240 239 240 242 244 245 245 246 247 249 250 252 253 255 255 254 251
Height
5912 5913 5915 5916 5916 5916 5918 5919 5919 5920 5921 5921 5922 5922 5923 5924 5925 5927 5929 5930 5931 5933 5935 5936 5937 5938 5939 5939 5939 5940 5941 5942 5944 5945 5945 5945 5946 5946 5947 5947 5948 5948 5949 5949 5949 5950 5950 5951 5951 5951 5952 5952 5952 5952 5952 5953 5954 5954 5955 5955 5956 5956 5956 5957 5957 5957 5957 5958 5957 5957 5957 5957 5957 5957 5958 5958 5958 5958 5958 5958 5957 5957 5957 5957 5957
5911 5913 5914 5916 5917 5916 5917 5918 5919 5920 5921 5921 5921 5922 5923 5924 5925 5927 5928 5930 5931 5933 5935 5936 5937 5938 5938 5938 5939 5940 5941 5942 5944 5945 5945 5945 5946 5947 5947 5948 5948 5949 5949 5950 5950 5951 5951 5952 5952 5953 5953 5953 5953 5953 5954 5954 5955 5955 5956 5956 5956 5957 5957 5958 5958 5958 5959 5959 5959 5959 5959 5958 5958 5959 5959 5959 5960 5960 5959 5959 5959 5958 5958 5958 5958
5911 5912 5913 5915 5917 5917 5916 5918 5919 5920 5921 5921 5921 5922 5923 5924 5925 5927 5928 5930 5931 5933 5935 5936 5937 5938 5938 5939 5939 5940 5941 5943 5944 5945 5945 5946 5946 5947 5948 5948 5949 5949 5949 5950 5951 5951 5952 5952 5953 5953 5954 5955 5955 5955 5955 5955 5956 5956 5957 5957 5957 5958 5958 5959 5959 5959 5960 5961 5961 5960 5960 5959 5960 5960 5960 5960 5961 5961 5961 5961 5960 5959 5959 5959 5959
5910 5911 5912 5914 5916 5916 5916 5917 5919 5919 5920 5922 5922 5922 5922 5923 5925 5927 5928 5930 5931 5933 5934 5936 5937 5938 5939 5939 5940 5941 5942 5943 5944 5945 5946 5946 5947 5948 5948 5949 5949 5950 5950 5951 5951 5952 5953 5953 5954 5954 5955 5956 5956 5956 5956 5957 5957 5957 5958 5958 5958 5959 5959 5960 5960 5961 5961 5962 5962 5961 5961 5961 5961 5961 5961 5962 5962 5961 5961 5962 5961 5960 5960 5959 5959
5909 5910 5911 5913 5914 5916 5916 5917 5918 5919 5920 5921 5922 5922 5922 5923 5924 5926 5928 5929 5931 5933 5934 5936 5937 5938 5939 5940 5941 5941 5942 5943 5944 5945 5946 5947 5948 5949 5949 5950 5950 5951 5951 5952 5953 5953 5954 5954 5955 5955 5956 5957 5957 5957 5957 5958 5958 5959 5959 5959 5960 5960 5960 5961 5961 5962 5962 5962 5962 5962 5962 5962 5961 5962 5963 5963 5963 5962 5962 5963 5962 5962 5961 5960 5960
5908 5910 5910 5912 5914 5914 5915 5916 5918 5919 5919 5920 5921 5921 5922 5922 5924 5926 5928 5929 5931 5932 5934 5935 5937 5938 5939 5939 5940 5941 5942 5943 5944 5946 5947 5948 5948 5949 5950 5951 5951 5952 5952 5953 5954 5954 5955 5956 5956 5957 5957 5958 5958 5958 5958 5959 5959 5960 5960 5960 5961 5961 5961 5962 5962 5962 5963 5963 5963 5963 5963 5963 5963 5963 5964 5964 5964 5963 5963 5963 5963 5962 5961 5960 5960
5908 5909 5910 5912 5913 5914 5915 5915 5917 5918 5919 5919 5920 5921 5922 5923 5924 5925 5927 5929 5930 5932 5934 5935 5936 5937 5938 5939 5940 5941 5942 5943 5945 5946 5947 5948 5949 5950 5951 5952 5952 5953 5954 5954 5955 5956 5956 5957 5957 5957 5958 5958 5958 5958 5959 5960 5960 5960 5961 5962 5962 5962 5963 5963 5963 5963 5963 5963 5963 5963 5964 5964 5963 5964 5965 5965 5964 5964 5964 5964 5964 5963 5962 5961 5961
5906 5908 5910 5911 5913 5914 5914 5915 5915 5917 5918 5919 5920 5921 5922 5922 5923 5925 5927 5928 5930 5932 5933 5934 5936 5937 5938 5939 5940 5942 5942 5943 5945 5946 5947 5949 5949 5950 5952 5952 5953 5954 5955 5956 5956 5957 5957 5957 5958 5958 5959 5959 5959 5959 5960 5961 5961 5961 5962 5962 5963 5963 5963 5964 5964 5964 5964 5964 5964 5964 5965 5965 5964 5964 5965 5965 5965 5965 5965 5965 5965 5964 5962 5961 5961
5905 5907 5909 5911 5912 5913 5913 5914 5915 5916 5917 5918 5919 5920 5921 5922 5923 5925 5926 5928 5930 5931 5932 5934 5935 5937 5938 5939 5940 5942 5943 5944 5945 5947 5948 5949 5950 5951 5952 5953 5954 5954 5955 5956 5957 5957 5958 5958 5959 5959 5960 5960 5960 5961 5961 5962 5962 5962 5962 5963 5963 5964 5964 5964 5964 5964 5964 5964 5965 5966 5966 5966 5965 5965 5966 5966 5966 5966 5966 5966 5965 5965 5963 5962 5962
5904 5906 5908 5910 5911 5912 5912 5913 5914 5915 5916 5917 5918 5919 5920 5921 5923 5925 5926 5928 5929 5931 5932 5933 5935 5936 5938 5939 5940 5942 5943 5944 5946 5947 5949 5950 5950 5951 5952 5953 5954 5955 5956 5957 5957 5958 5958 5959 5960 5960 5960 5961 5961 5962 5962 5962 5962 5963 5963 5964 5964 5964 5964 5964 5965 5965 5965 5965 5966 5966 5967 5967 5966 5966 5966 5967 5967 5967 5966 5966 5966 5965 5964 5964 5964
5903 5904 5906 5908 5910 5911 5912 5912 5913 5914 5915 5916 5917 5918 5919 5921 5922 5924 5926 5927 5929 5930 5932 5933 5935 5936 5938 5939 5940 5941 5943 5944 5945 5947 5948 5950 5950 5951 5952 5954 5955 5955 5956 5957 5957 5958 5959 5959 5960 5961 5961 5961 5962 5962 5962 5962 5963 5963 5964 5964 5964 5965 5965 5965 5965 5965 5966 5966 5967 5967 5967 5967 5967 5967 5967 5967 5967 5967 5967 5966 5966 5966 5966 5966 5965
5902 5903 5904 5906 5908 5910 5911 5912 5913 5913 5914 5915 5916 5917 5918 5919 5921 5923 5925 5927 5928 5930 5931 5933 5934 5936 5937 5939 5940 5941 5942 5944 5945 5946 5948 5949 5950 5951 5952 5953 5955 5955 5956 5957 5958 5958 5959 5959 5960 5961 5962 5962 5962 5963 5963 5963 5963 5964 5964 5964 5965 5965 5965 5965 5966 5966 5966 5967 5967 5967 5967 5967 5967 5968 5968 5968 5968 5968 5968 5967 5967 5967 5967 5967 5967
5901 5902 5903 5905 5907 5909 5911 5912 5912 5913 5914 5914 5915 5916 5917 5917 5919 5921 5924 5926 5928 5929 5931 5932 5934 5935 5937 5938 5939 5941 5942 5943 5945 5946 5948 5949 5950 5951 5952 5953 5954 5955 5956 5957 5957 5958 5959 5960 5960 5961 5962 5963 5963 5963 5963 5964 5964 5964 5964 5965 5965 5965 5965 5966 5966 5966 5967 5967 5967 5967 5967 5967 5968 5968 5969 5968 5968 5968 5968 5968 5968 5968 5968 5968 5968
5900 5901 5902 5904 5907 5908 5909 5910 5911 5912 5913 5914 5914 5915 5916 5916 5917 5919 5922 5924 5926 5928 5930 5931 5933 5935 5936 5937 5939 5940 5941 5943 5944 5946 5947 5949 5950 5951 5952 5953 5954 5955 5955 5956 5957 5958 5959 5960 5960 5961 5962 5962 5963 5963 5964 5964 5964 5964 5964 5965 5965 5965 5966 5966 5966 5967 5967 5967 5967 5967 5967 5968 5968 5969 5969 5969 5969 5968 5968 5968 5969 5969 5969 5969 5969
5898 5900 5901 5903 5905 5907 5908 5909 5910 5911 5912 5912 5913 5914 5915 5915 5916 5917 5919 5922 5925 5927 5929 5930 5932 5934 5935 5937 5938 5939 5940 5942 5943 5945 5946 5948 5949 5950 5952 5953 5953 5954 5955 5956 5957 5957 5958 5959 5960 5961 5962 5962 5963 5963 5963 5963 5963 5964 5965 5965 5965 5966 5966 5967 5967 5967 5967 5967 5967 5967 5967 5968 5968 5969 5969 5969 5969 5970 5970 5969 5969 5970 5970 5970 5970
5896 5898 5900 5902 5904 5906 5907 5908 5909 5911 5911 5911 5912 5913 5913 5914 5915 5916 5917 5920 5923 5925 5927 5929 5931 5932 5934 5936 5937 5938 5939 5941 5943 5944 5946 5947 5948 5950 5951 5952 5953 5953 5954 5955 5956 5957 5958 5959 5960 5961 5962 5962 5963 5963 5963 5964 5964 5964 5965 5965 5966 5966 5967 5967 5967 5967 5967 5967 5967 5967 5968 5968 5968 5969 5969 5969 5970 5970 5971 5970 5970 5971 5971 5971 5971
5895 5896 5898 5900 5902 5904 5906 5907 5908 5910 5911 5911 5911 5911 5912 5913 5914 5915 5916 5918 5921 5923 5925 5927 5929 5931 5933 5935 5936 5937 5939 5940 5942 5943 5945 5946 5947 5948 5950 5951 5952 5953 5954 5955 5955 5956 5957 5958 5959 5960 5961 5962 5963 5963 5963 5964 5964 5964 5965 5965 5966 5967 5967 5968 5968 5968 5968 5968 5968 5968 5968 5968 5968 5968 5969 5970 5970 5971 5971 5971 5971 5971 5971 5971 5971
5893 5895 5896 5898 5900 5902 5904 5905 5907 5908 5909 5910 5910 5910 5911 5912 5913 5914 5915 5917 5919 5922 5923 5925 5927 5929 5932 5934 5935 5936 5938 5939 5940 5942 5943 5945 5946 5948 5949 5950 5951 5952 5953 5954 5955 5956 5957 5958 5959 5960 5961 5962 5963 5963 5964 5964 5964 5965 5965 5966 5966 5967 5968 5968 5968 5968 5968 5968 5968 5968 5968 5968 5968 5968 5969 5970 5971 5971 5971 5972 5972 5972 5972 5972 5972
5891 5893 5895 5896 5898 5900 5902 5904 5905 5907 5908 5908 5909 5909 5910 5911 5912 5913 5914 5916 5917 5919 5921 5923 5926 5928 5930 5932 5934 5935 5936 5938 5939 5941 5943 5944 5946 5947 5948 5949 5950 5951 5952 5953 5954 5955 5956 5957 5959 5960 5961 5962 5963 5963 5964 5964 5964 5965 5965 5966 5967 5967 5968 5968 5968 5969 5969 5969 5969 5969 5968 5968 5968 5969 5969 5970 5971 5971 5971 5972 5972 5972 5972 5972 5972
5889 5892 5893 5895 5896 5898 5900 5902 5903 5905 5906 5907 5908 5909 5909 5910 5911 5912 5913 5914 5916 5918 5920 5922 5925 5927 5929 5931 5933 5935 5936 5936 5938 5940 5942 5943 5945 5946 5948 5949 5950 5951 5952 5953 5954 5955 5956 5957 5958 5960 5961 5962 5963 5963 5964 5964 5965 5965 5966 5966 5967 5967 5968 5968 5968 5969 5969 5969 5969 5969 5969 5969 5969 5969 5970 5970 5971 5971 5971 5972 5972 5972 5972 5972 5972
5887 5889 5891 5893 5894 5896 5898 5900 5901 5903 5904 5905 5907 5908 5908 5908 5909 5910 5911 5913 5915 5917 5920 5922 5924 5925 5927 5930 5932 5934 5935 5936 5937 5939 5940 5942 5944 5945 5947 5948 5949 5950 5951 5952 5954 5955 5956 5957 5958 5960 5961 5961 5962 5963 5964 5964 5965 5965 5966 5966 5966 5967 5968 5968 5968 5969 5969 5969 5969 5969 5969 5969 5970 5970 5970 5970 5970 5971 5971 5971 5972 5972 5972 5972 5972
5884 5887 5889 5891 5892 5894 5896 5897 5899 5900 5902 5904 5905 5906 5907 5907 5908 5909 5911 5912 5913 5915 5917 5920 5922 5924 5926 5928 5930 5932 5934 5936 5937 5938 5939 5940 5942 5944 5945 5947 5948 5949 5950 5952 5953 5954 5955 5956 5958 5959 5960 5961 5962 5962 5963 5964 5964 5965 5965 5966 5966 5967 5967 5968 5968 5969 5969 5969 5969 5970 5970 5970 5970 5970 5970 5970 5970 5971 5971 5971 5971 5972 5972 5972 5972
5881 5884 5886 5888 5890 5891 5893 5894 5896 5898 5900 5902 5903 5905 5905 5906 5907 5908 5910 5910 5912 5913 5914 5916 5918 5921 5923 5926 5928 5930 5932 5934 5936 5937 5938 5939 5940 5942 5944 5946 5947 5948 5949 5951 5952 5953 5955 5956 5957 5958 5959 5960 5961 5961 5962 5963 5964 5965 5965 5966 5966 5967 5967 5968 5968 5969 5969 5969 5970 5970 5970 5970 5970 5970 5971 5971 5971 5971 5971 5971 5971 5971 5971 5972 5972
5877 5880 5882 5884 5886 5887 5889 5891 5893 5895 5897 5899 5901 5903 5904 5904 5905 5907 5908 5909 5910 5910 5911 5913 5916 5918 5920 5922 5925 5928 5930 5933 5935 5937 5937 5938 5939 5940 5942 5944 5945 5947 5948 5949 5951 5952 5953 5954 5955 5956 5958 5959 5960 5960 5961 5962 5963 5964 5965 5965 5966 5966 5967 5967 5968 5968 5968 5969 5969 5969 5970 5970 5970 5970 5970 5970 5970 5970 5971 5971 5971 5971 5971 5971 5971
5871 5874 5877 5879 5881 5883 5885 5888 5890 5892 5894 5896 5899 5901 5902 5903 5904 5905 5906 5907 5908 5909 5910 5911 5913 5915 5917 5919 5922 5925 5928 5930 5933 5935 5936 5937 5937 5938 5940 5941 5943 5945 5946 5948 5949 5951 5952 5953 5954 5955 5956 5957 5958 5959 5960 5961 5962 5963 5964 5965 5965 5966 5966 5967 5967 5967 5968 5968 5968 5968 5969 5969 5969 5969 5969 5969 5970 5970 5970 5970 5970 5971 5971 5971 5971
5864 5866 5868 5870 5873 5876 5880 5883 5886 5888 5891 5893 5895 5897 5899 5901 5902 5903 5904 5905 5906 5907 5908 5909 5910 5912 5914 5916 5919 5922 5925 5928 5930 5931 5933 5934 5936 5936 5938 5939 5941 5943 5944 5946 5948 5949 5950 5951 5952 5953 5954 5956 5957 5957 5958 5959 5960 5961 5963 5964 5965 5965 5966 5966 5966 5967 5967 5967 5968 5968 5968 5968 5968 5968 5968 5969 5969 5969 5969 5970 5970 5970 5970 5970 5970
5858 5860 5862 5865 5867 5870 5873 5876 5879 5882 5885 5888 5891 5893 5896 5897 5899 5900 5901 5902 5903 5904 5906 5907 5908 5910 5911 5914 5916 5919 5922 5924 5926 5928 5929 5931 5933 5935 5936 5937 5938 5940 5942 5944 5945 5947 5949 5949 5950 5952 5953 5954 5955 5956 5957 5957 5959 5960 5961 5962 5963 5964 5965 5965 5966 5966 5966 5966 5967 5967 5967 5967 5967 5967 5967 5967 5968 5968 5968 5968 5969 5969 5969 5969 5969
5856 5856 5858 5862 5864 5866 5869 5872 5874 5876 5878 5880 5883 5887 5890 5893 5895 5897 5898 5899 5901 5902 5903 5904 5906 5908 5909 5911 5914 5916 5918 5920 5922 5923 5925 5928 5930 5932 5933 5934 5935 5937 5940 5942 5943 5945 5946 5948 5949 5950 5951 5952 5953 5954 5955 5956 5957 5958 5959 5961 5962 5963 5964 5964 5965 5965 5965 5965 5966 5966 5966 5966 5966 5966 5966 5967 5966 5967 5967 5967 5967 5968 5968 5968 5968
5854 5854 5856 5858 5860 5862 5865 5868 5871 5873 5874 5875 5877 5879 5881 5885 5888 5891 5893 5895 5897 5898 5900 5902 5904 5906 5907 5908 5910 5912 5915 5917 5918 5920 5922 5925 5927 5929 5930 5932 5933 5935 5937 5939 5941 5942 5944 5946 5947 5948 5949 5951 5952 5952 5953 5954 5955 5957 5958 5959 5960 5961 5962 5963 5964 5964 5964 5965 5965 5965 5965 5965 5965 5965 5965 5965 5965 5965 5966 5966 5966 5966 5967 5967 5967
5850 5852 5854 5856 5858 5859 5861 5863 5866 5869 5872 5874 5875 5876 5876 5877 5880 5884 5887 5890 5893 5895 5897 5899 5901 5902 5903 5904 5906 5908 5911 5914 5916 5919 5921 5922 5924 5926 5928 5929 5931 5932 5934 5936 5938 5940 5942 5944 5945 5946 5948 5949 5950 5951 5951 5952 5953 5955 5956 5957 5958 5960 5961 5962 5963 5963 5963 5964 5964 5964 5964 5964 5964 5964 5964 5964 5964 5964 5964 5964 5964 5965 5965 5965 5965
5845 5849 5851 5853 5855 5856 5857 5859 5862 5864 5867 5870 5873 5875 5875 5874 5874 5877 5882 5887 5890 5894 5896 5898 5900 5902 5905 5907 5906 5906 5907 5910 5913 5916 5918 5920 5922 5924 5925 5927 5928 5929 5931 5933 5935 5937 5939 5941 5943 5944 5946 5947 5948 5949 5950 5950 5951 5952 5954 5955 5956 5958 5959 5960 5961 5961 5962 5962 5963 5963 5963 5963 5963 5963 5963 5963 5963 5963 5963 5963 5963 5963 5963 5963 5963
5840 5844 5847 5849 5850 5852 5853 5855 5857 5860 5863 5866 5868 5871 5874 5876 5874 5872 5875 5881 5887 5891 5895 5897 5901 5904 5909 5913 5913 5911 5909 5908 5910 5912 5914 5917 5919 5921 5923 5924 5926 5927 5928 5929 5932 5934 5936 5938 5940 5941 5943 5945 5946 5947 5947 5948 5949 5950 5951 5953 5954 5955 5956 5958 5959 5959 5960 5961 5961 5961 5961 5962 5961 5961 5961 5961 5961 5961 5961 5961 5961 5961 5961 5961 5961
5834 5837 5840 5842 5844 5847 5849 5851 5853 5856 5859 5861 5863 5864 5868 5873 5875 5873 5871 5874 5880 5886 5890 5894 5897 5900 5904 5910 5914 5916 5914 5912 5911 5910 5911 5913 5916 5919 5921 5923 5924 5924 5925 5927 5928 5931 5933 5935 5937 5939 5941 5942 5943 5944 5945 5946 5947 5948 5949 5950 5951 5952 5954 5955 5956 5957 5958 5958 5959 5959 5960 5960 5960 5960 5960 5960 5960 5960 5960 5959 5959 5960 5960 5959 5959
5828 5831 5833 5836 5839 5843 5846 5849 5851 5853 5856 5858 5860 5861 5863 5868 5874 5876 5873 5872 5873 5878 5883 5889 5893 5896 5898 5901 5906 5910 5914 5914 5912 5910 5910 5911 5914 5917 5919 5920 5921 5922 5923 5924 5926 5927 5929 5932 5934 5936 5937 5939 5940 5942 5943 5943 5944 5946 5946 5947 5948 5949 5951 5952 5954 5955 5955 5956 5957 5957 5958 5958 5958 5958 5958 5958 5958 5958 5958 5958 5957 5957 5958 5957 5957
5822 5825 5827 5830 5835 5839 5843 5846 5849 5852 5854 5856 5858 5860 5863 5866 5871 5875 5876 5874 5872 5873 5877 5883 5888 5892 5893 5893 5895 5898 5904 5909 5910 5909 5909 5910 5911 5913 5915 5917 5919 5920 5921 5922 5923 5924 5926 5928 5930 5932 5934 5936 5937 5939 5940 5941 5942 5943 5944 5945 5946 5947 5948 5950 5951 5952 5953 5954 5954 5955 5955 5956 5956 5956 5956 5956 5956 5956 5956 5956 5956 5955 5955 5955 5955
5817 5820 5822 5825 5829 5834 5837 5841 5845 5848 5849 5851 5854 5858 5861 5864 5867 5871 5874 5876 5877 5877 5876 5879 5883 5887 5889 5890 5891 5892 5896 5901 5905 5906 5907 5908 5909 5910 5912 5914 5916 5917 5918 5919 5920 5921 5923 5924 5926 5928 5930 5933 5934 5935 5937 5938 5939 5939 5940 5942 5943 5944 5946 5947 5949 5950 5951 5951 5952 5952 5953 5953 5953 5954 5954 5953 5953 5953 5954 5954 5953 5953 5953 5953 5952
5812 5815 5817 5820 5824 5829 5832 5835 5839 5842 5843 5845 5848 5852 5856 5860 5862 5865 5869 5874 5877 5880 5879 5879 5881 5883 5885 5888 5891 5892 5893 5896 5899 5902 5903 5905 5906 5907 5908 5910 5912 5914 5915 5916 5918 5919 5920 5921 5922 5924 5927 5929 5930 5932 5933 5934 5935 5935 5937 5938 5940 5942 5943 5944 5946 5947 5948 5948 5949 5949 5950 5950 5951 5951 5951 5951 5951 5951 5951 5951 5951 5950 5950 5950 5949
5807 5810 5812 5815 5819 5824 5828 5831 5833 5836 5839 5840 5842 5847 5852 5856 5858 5860 5864 5869 5873 5876 5878 5879 5880 5881 5882 5885 5888 5891 5892 5894 5896 5898 5899 5901 5902 5903 5905 5907 5909 5910 5912 5913 5914 5915 5916 5917 5919 5921 5923 5925 5926 5928 5929 5930 5931 5932 5933 5934 5936 5938 5940 5941 5942 5943 5944 5945 5946 5946 5947 5947 5948 5948 5948 5948 5949 5949 5949 5948 5948 5948 5947 5947 5946
5802 5805 5807 5809 5813 5818 5823 5827 5830 5832 5834 5836 5838 5842 5847 5852 5854 5857 5861 5865 5868 5871 5874 5876 5877 5877 5879 5882 5885 5887 5890 5892 5894 5895 5896 5897 5899 5900 5901 5903 5905 5907 5908 5909 5910 5912 5913 5915 5916 5917 5919 5920 5922 5924 5925 5927 5928 5928 5929 5930 5932 5934 5936 5938 5939 5940 5941 5942 5942 5943 5943 5944 5945 5944 5944 5945 5946 5946 5946 5945 5945 5945 5944 5943 5942
5798 5800 5802 5805 5808 5812 5817 5821 5825 5828 5830 5832 5835 5838 5842 5846 5851 5854 5858 5861 5864 5866 5869 5871 5872 5873 5876 5879 5881 5884 5887 5889 5891 5892 5892 5893 5895 5897 5898 5900 5902 5903 5904 5905 5907 5909 5910 5912 5913 5914 5915 5917 5918 5920 5921 5923 5923 5924 5926 5927 5928 5931 5933 5934 5935 5936 5937 5938 5938 5939 5939 5940 5940 5940 5940 5941 5942 5943 5943 5942 5942 5942 5940 5939 5939
5793 5795 5798 5800 5802 5806 5810 5815 5819 5823 5826 5828 5831 5834 5838 5842 5846 5850 5853 5856 5858 5860 5863 5866 5867 5869 5872 5875 5878 5881 5884 5886 5887 5889 5889 5889 5891 5893 5895 5897 5898 5899 5901 5902 5904 5905 5907 5908 5910 5911 5913 5914 5915 5916 5917 5918 5919 5920 5922 5923 5925 5927 5929 5931 5931 5932 5933 5934 5934 5935 5935 5935 5936 5936 5936 5937 5938 5939 5940 5939 5939 5938 5937 5936 5936
5788 5791 5794 5796 5799 5801 5805 5809 5813 5817 5820 5823 5827 5831 5835 5838 5842 5845 5847 5850 5853 5856 5858 5861 5863 5866 5869 5873 5875 5878 5881 5882 5883 5884 5885 5887 5888 5889 5892 5894 5895 5896 5897 5899 5900 5901 5903 5905 5906 5908 5910 5911 5912 5913 5914 5914 5915 5917 5918 5919 5921 5923 5925 5926 5927 5929 5930 5931 5931 5930 5930 5930 5930 5931 5932 5933 5934 5935 5936 5936 5936 5934 5933 5934 5934
5783 5786 5788 5792 5796 5798 5800 5804 5807 5811 5815 5818 5822 5826 5831 5835 5838 5840 5841 5844 5848 5851 5853 5856 5859 5862 5866 5869 5872 5875 5877 5878 5879 5881 5882 5884 5884 5886 5888 5890 5891 5893 5894 5895 5897 5898 5900 5902 5903 5905 5907 5908 5909 5910 5911 5912 5913 5914 5915 5916 5918 5920 5921 5922 5924 5926 5927 5927 5927 5926 5926 5926 5926 5926 5927 5928 5930 5931 5932 5932 5931 5931 5931 5931 5932
5776 5779 5782 5786 5790 5794 5797 5799 5802 5806 5810 5813 5816 5821 5826 5830 5833 5835 5837 5840 5843 5846 5849 5852 5855 5858 5861 5864 5867 5870 5872 5874 5876 5877 5879 5880 5881 5882 5885 5887 5888 5889 5891 5892 5894 5895 5897 5899 5900 5902 5904 5905 5906 5907 5908 5909 5910 5911 5912 5913 5914 5916 5917 5917 5919 5921 5922 5923 5923 5922 5922 5921 5922 5922 5923 5924 5925 5926 5927 5927 5927 5927 5928 5929 5929
5768 5772 5776 5780 5784 5788 5792 5794 5797 5800 5804 5808 5812 5816 5820 5824 5827 5830 5833 5836 5839 5842 5845 5848 5851 5854 5857 5860 5863 5865 5867 5870 5872 5873 5875 5876 5877 5879 5881 5883 5885 5886 5887 5889 5891 5892 5894 5896 5897 5899 5901 5902 5903 5904 5905 5906 5907 5908 5909 5910 5911 5912 5912 5913 5915 5917 5918 5918 5918 5918 5917 5918 5918 5919 5919 5920 5921 5922 5923 5923 5923 5924 5925 5926 5926
5761 5766 5770 5774 5778 5782 5786 5789 5792 5795 5798 5803 5807 5811 5815 5818 5822 5825 5829 5831 5834 5838 5840 5843 5846 5849 5853 5856 5858 5861 5864 5866 5868 5869 5871 5873 5874 5875 5877 5879 5880 5882 5884 5886 5888 5889 5891 5893 5895 5896 5898 5899 5899 5900 5902 5903 5904 5905 5906 5907 5907 5908 5908 5909 5910 5912 5913 5913 5914 5914 5913 5913 5914 5914 5915 5916 5918 5918 5919 5919 5920 5921 5922 5923 5923
5754 5759 5763 5767 5770 5774 5778 5783 5786 5789 5793 5797 5801 5806 5810 5814 5817 5820 5824 5827 5830 5833 5837 5840 5843 5845 5848 5851 5854 5857 5860 5862 5863 5866 5868 5869 5870 5871 5872 5874 5876 5879 5881 5883 5884 5886 5887 5889 5892 5894 5895 5895 5896 5896 5898 5900 5901 5901 5902 5903 5903 5904 5904 5905 5906 5907 5908 5908 5909 5909 5908 5908 5909 5910 5911 5912 5913 5914 5915 5916 5916 5917 5918 5919 5919
5746 5751 5756 5760 5763 5767 5772 5776 5780 5783 5787 5791 5796 5800 5805 5809 5812 5815 5818 5822 5826 5829 5833 5836 5839 5841 5844 5846 5849 5852 5854 5856 5859 5861 5863 5865 5866 5868 5869 5871 5874 5876 5878 5879 5880 5882 5883 5886 5888 5890 5890 5891 5892 5893 5895 5896 5896 5896 5896 5897 5898 5899 5899 5900 5901 5902 5901 5902 5902 5903 5903 5904 5905 5906 5907 5908 5909 5910 5910 5911 5912 5913 5914 5915 5915
5738 5743 5748 5752 5757 5761 5765 5770 5774 5778 5782 5786 5790 5794 5799 5803 5807 5810 5814 5818 5822 5825 5828 5831 5834 5836 5839 5841 5844 5846 5848 5851 5853 5855 5858 5859 5861 5862 5864 5867 5869 5871 5873 5875 5876 5878 5880 5881 5883 5884 5886 5886 5888 5890 5891 5891 5890 5890 5890 5891 5893 5893 5893 5894 5895 5895 5895 5896 5898 5899 5901 5901 5902 5903 5903 5903 5904 5905 5906 5906 5908 5909 5909 5910 5910
5730 5736 5740 5745 5749 5754 5758 5763 5768 5772 5776 5780 5784 5788 5793 5797 5802 5805 5809 5812 5817 5820 5823 5826 5828 5831 5833 5836 5839 5841 5843 5845 5848 5850 5851 5851 5852 5856 5859 5863 5865 5867 5869 5871 5872 5874 5875 5876 5877 5879 5881 5882 5885 5886 5887 5885 5885 5885 5886 5886 5886 5887 5887 5888 5889 5889 5890 5893 5895 5897 5898 5899 5898 5899 5899 5899 5900 5900 5901 5902 5903 5904 5905 5905 5906
5722 5728 5733 5737 5742 5747 5751 5756 5760 5765 5769 5774 5778 5782 5787 5791 5795 5800 5803 5806 5811 5814 5817 5820 5822 5825 5827 5830 5833 5835 5838 5839 5841 5842 5842 5844 5849 5854 5858 5860 5862 5864 5865 5866 5868 5869 5870 5871 5873 5875 5876 5878 5880 5881 5882 5882 5882 5882 5881 5881 5881 5881 5881 5882 5884 5885 5887 5889 5892 5894 5895 5894 5894 5894 5894 5894 5895 5895 5896 5897 5898 5898 5900 5901 5902